Location: ?????
(44.4284°N, 135.2222°E)
Time: 09:58:21
(UTC+00:00)

DELTA 2 R/B (1) - Pass Details

Date: 15 January 2026
Orbit: 786 x 800 km, 39.6° (Epoch: 10 February)

Event Time Altitude Azimuth Distance (km) Brightness Sun altitude
Rises 09:51:03 0° 228° (SW) 3,275 7.7 -22.0°
Reaches altitude 10° 09:53:46 10° 218° (SW) 2,345 6.6 -22.5°
Maximum altitude 09:58:34 31° 158° (SSE) 1,352 4.6 -23.3°
Enters shadow 09:59:02 31° 148° (SSE) 1,364 4.5 -23.4°
